Weather History for KFUL - November, 2014

Change the Weather History Date:

Thursday, November 13, 2014

  Actual Average Record
Temperature  
Mean Temperature 63 °F 62 °F  
Max Temperature 71 °F 73 °F 94 °F (2013)
Min Temperature 55 °F 50 °F 40 °F (2000)
Degree Days  
Heating Degree Days 2 4  
Month to date heating degree days 11 38  
Since 1 July heating degree days 11 62  
Cooling Degree Days 0 1  
Month to date cooling degree days 40 15  
Year to date cooling degree days 2088 1246  
Growing Degree Days 12 (Base 50)    
Moisture  
Dew Point 53 °F    
Average Humidity 70    
Maximum Humidity 86    
Minimum Humidity 53    
Precipitation  
Precipitation 0.00 in 0.03 in 0.01 in (2005)
Month to date precipitation 0.25 0.53  
Year to date precipitation 4.00 11.26  
Since 1 July precipitation 0.54 1.61  
Snow  
Snow 0.00 in - - ()
Month to date snowfall 0.0  
Year to date snowfall 0.0  
Since 1 July snowfall 0.0  
Snow Depth 0.00 in    
Sea Level Pressure  
Sea Level Pressure 30.03 in    
Wind  
Wind Speed 1 mph (SW)    
Max Wind Speed 9 mph    
Max Gust Speed 13 mph    
Visibility 10 miles    
Events      
T = Trace of Precipitation, MM = Missing Value Source: NWS Daily Summary

Daily Weather History Graph

Daily Weather History Graph

Search for Another Location

Airport or City:

Trip Planner

Search our weather history database for the weather conditions in past years. The results will help you decide how hot, cold, wet, or windy it might be!

Date:

Astronomy

Nov. 13, 2014 Rise Set
Actual Time 6:22 AM PST 4:49 PM PST
Civil Twilight 5:55 AM PST 5:16 PM PST
Nautical Twilight 5:25 AM PST 5:46 PM PST
Astronomical Twilight 4:56 AM PST 6:15 PM PST
Moon 11:05 PM PST (11/13) 11:49 AM PST (11/13)
Length of Visible Light 11h 20m
Length of Day
10h 27m
Waning Gibbous, 58% of the Moon is Illuminated
Nov 13
Waning Gibbous
Nov 14
Last Quarter
Nov 22
New
Nov 29
First Quarter
Dec 6
Full

Hourly Weather History & Observations

Time (PST) Temp. Dew Point Humidity Pressure Visibility Wind Dir Wind Speed Gust Speed Precip Events Conditions
12:53 AM 57.0 °F 50.0 °F 77% 30.03 in 10.0 mi Calm Calm - N/A   Clear
1:53 AM 57.0 °F 50.0 °F 77% 30.03 in 10.0 mi Calm Calm - N/A   Clear
2:53 AM 57.0 °F 51.1 °F 81% 30.03 in 10.0 mi Calm Calm - N/A   Overcast
3:53 AM 57.0 °F 51.1 °F 81% 30.03 in 10.0 mi Calm Calm - N/A   Partly Cloudy
4:53 AM 55.9 °F 51.1 °F 84% 30.03 in 10.0 mi Calm Calm - N/A   Partly Cloudy
5:53 AM 55.9 °F 50.0 °F 80% 30.03 in 10.0 mi Calm Calm - N/A   Clear
6:53 AM 55.9 °F 51.1 °F 84% 30.05 in 10.0 mi Calm Calm - N/A   Mostly Cloudy
7:53 AM 61.0 °F 53.1 °F 75% 30.07 in 10.0 mi Calm Calm - N/A   Scattered Clouds
8:53 AM 64.9 °F 53.1 °F 65% 30.08 in 10.0 mi Calm Calm - N/A   Clear
9:53 AM 66.9 °F 53.1 °F 61% 30.08 in 10.0 mi Calm Calm - N/A   Scattered Clouds
10:53 AM 68.0 °F 51.1 °F 55% 30.06 in 10.0 mi Variable 3.5 mph - N/A   Mostly Cloudy
11:53 AM 70.0 °F 51.1 °F 51% 30.03 in 10.0 mi North 3.5 mph - N/A   Partly Cloudy
12:53 PM 70.0 °F 51.1 °F 51% 30.01 in 10.0 mi Calm Calm - N/A   Scattered Clouds
1:53 PM 70.0 °F 54.0 °F 57% 30.00 in 10.0 mi WSW 6.9 mph - N/A   Overcast
2:53 PM 68.0 °F 54.0 °F 61% 30.01 in 10.0 mi SW 6.9 mph - N/A   Overcast
3:53 PM 68.0 °F 54.0 °F 61% 30.00 in 10.0 mi SW 5.8 mph - N/A   Overcast
4:53 PM 66.0 °F 54.0 °F 65% 30.00 in 10.0 mi West 3.5 mph - N/A   Mostly Cloudy
5:53 PM 66.0 °F 55.0 °F 68% 30.00 in 10.0 mi Calm Calm - N/A   Overcast
6:53 PM 66.0 °F 55.0 °F 68% 30.00 in 10.0 mi Calm Calm - N/A   Overcast
7:53 PM 64.9 °F 55.0 °F 70% 30.01 in 10.0 mi Calm Calm - N/A   Mostly Cloudy
8:53 PM 64.9 °F 55.0 °F 70% 30.03 in 10.0 mi Calm Calm - N/A   Overcast
9:08 PM 64.9 °F 55.0 °F 70% 30.03 in 10.0 mi Calm Calm - N/A   Overcast
9:53 PM 64.0 °F 55.0 °F 73% 30.02 in 10.0 mi Calm Calm - N/A   Mostly Cloudy
10:04 PM 63.0 °F 55.0 °F 75% 30.02 in 10.0 mi Calm Calm - N/A   Scattered Clouds
10:25 PM 64.0 °F 55.0 °F 73% 30.02 in 10.0 mi Calm Calm - N/A   Mostly Cloudy
10:53 PM 64.0 °F 55.0 °F 73% 30.01 in 10.0 mi East 4.6 mph - N/A   Overcast
11:53 PM 64.0 °F 55.0 °F 73% 29.99 in 10.0 mi East 4.6 mph - N/A   Mostly Cloudy